^^
Saratoga-Weather Station Historical Data
Daily Summary for March 9, 2020 Units:  Metric    English   Both
Daily Weekly Monthly Yearly Custom
  High: Low: Average:
Temperature: 11.3 °C 9.1 °C 10.1 °C
Dew Point: 10.6 °C 8.8 °C 9.8 °C
Humidity: 98% 95% 98%
Wind Speed: 13km/h 0km/h 2.9km/h
Wind Gust: 19.3km/h - -
Wind- - SSE
Pressure: 1024.7 hPa 1017.6 hPa -
Precipitation: 1.8 mm    
Historical Graphs
 
 
Tabular Data for March 9, 2020
Time Temperature Dew Point Pressure Wind Wind Speed Wind Gust Humidity Rainfall Rate (Hourly) solar
00:02 9.1 °C 8.8 °C 1024.7 hPa Calm   3.2 km/h 98% 0.0 mm 0 W/m2
00:07 9.2 °C 8.9 °C 1024.4 hPa Calm   6.4 km/h 98% 0.0 mm 0 W/m2
00:12 9.4 °C 9.1 °C 1024.4 hPa NNE 3.2 km/h 4.8 km/h 98% 0.0 mm 0 W/m2
00:17 9.6 °C 9.3 °C 1024.0 hPa WNW 3.2 km/h 8 km/h 98% 0.0 mm 0 W/m2
00:22 9.6 °C 9.3 °C 1024.0 hPa SW 3.2 km/h 6.4 km/h 98% 0.0 mm 0 W/m2
00:27 9.7 °C 9.4 °C 1024.0 hPa Calm   8 km/h 98% 0.0 mm 0 W/m2
00:32 9.7 °C 9.4 °C 1024.0 hPa NE 1.4 km/h 3.2 km/h 98% 0.2 mm 0 W/m2
00:37 9.7 °C 9.4 °C 1024.0 hPa East 3.2 km/h 8 km/h 98% 0.2 mm 0 W/m2
00:42 9.7 °C 9.4 °C 1024.0 hPa NNE 3.2 km/h 4.8 km/h 98% 0.2 mm 0 W/m2
00:47 9.7 °C 9.4 °C 1024.0 hPa Calm     98% 0.2 mm 0 W/m2
00:52 9.7 °C 9.4 °C 1024.0 hPa NNE 1.4 km/h 4.8 km/h 98% 0.2 mm 0 W/m2
00:57 9.6 °C 9.3 °C 1024.0 hPa Calm   3.2 km/h 98% 0.2 mm 0 W/m2
01:02 9.6 °C 9.3 °C 1024.0 hPa NW 3.2 km/h 3.2 km/h 98% 0.2 mm 0 W/m2
01:07 9.7 °C 9.4 °C 1024.0 hPa Calm     98% 0.2 mm 0 W/m2
01:12 9.7 °C 9.4 °C 1024.0 hPa Calm   3.2 km/h 98% 0.2 mm 0 W/m2
01:17 9.7 °C 9.4 °C 1024.0 hPa SW 1.4 km/h 3.2 km/h 98% 0.2 mm 0 W/m2
01:22 9.7 °C 9.4 °C 1024.0 hPa Calm   3.2 km/h 98% 0.2 mm 0 W/m2
01:27 9.7 °C 9.4 °C 1024.0 hPa WSW 4.7 km/h 6.4 km/h 98% 0.2 mm 0 W/m2
01:32 9.6 °C 9.3 °C 1023.7 hPa Calm     98% 0.0 mm 0 W/m2
01:37 9.6 °C 9.3 °C 1023.7 hPa Calm   4.8 km/h 98% 0.0 mm 0 W/m2
01:43 9.6 °C 9.3 °C 1023.7 hPa North 1.4 km/h 3.2 km/h 98% 0.0 mm 0 W/m2
01:48 9.6 °C 9.3 °C 1023.4 hPa Calm     98% 0.0 mm 0 W/m2
01:53 9.7 °C 9.4 °C 1023.4 hPa Calm   6.4 km/h 98% 0.0 mm 0 W/m2
01:58 9.7 °C 9.4 °C 1023.4 hPa West 3.2 km/h 3.2 km/h 98% 0.2 mm 0 W/m2
02:03 9.7 °C 9.4 °C 1023.4 hPa Calm   6.4 km/h 98% 0.2 mm 0 W/m2
02:08 9.7 °C 9.4 °C 1023.4 hPa Calm   1.6 km/h 98% 0.2 mm 0 W/m2
02:13 9.7 °C 9.4 °C 1023.4 hPa Calm   4.8 km/h 98% 0.2 mm 0 W/m2
02:18 9.7 °C 9.4 °C 1023.4 hPa Calm   8 km/h 98% 0.2 mm 0 W/m2
02:23 9.7 °C 9.4 °C 1023.4 hPa Calm   3.2 km/h 98% 0.2 mm 0 W/m2
02:28 9.7 °C 9.4 °C 1023.4 hPa Calm     98% 0.2 mm 0 W/m2
02:33 9.7 °C 9.4 °C 1023.0 hPa ENE 3.2 km/h 4.8 km/h 98% 0.2 mm 0 W/m2
02:38 9.7 °C 9.4 °C 1023.0 hPa Calm   3.2 km/h 98% 0.2 mm 0 W/m2
02:43 9.7 °C 9.4 °C 1023.0 hPa NE 4.7 km/h 6.4 km/h 98% 0.2 mm 0 W/m2
02:48 9.7 °C 9.4 °C 1023.0 hPa NE 1.4 km/h 3.2 km/h 98% 0.2 mm 0 W/m2
02:53 9.7 °C 9.4 °C 1023.0 hPa NE 4.7 km/h 4.8 km/h 98% 0.2 mm 0 W/m2
02:58 9.7 °C 9.4 °C 1023.0 hPa North 3.2 km/h 4.8 km/h 98% 0.0 mm 0 W/m2
03:03 9.7 °C 9.4 °C 1023.0 hPa NNE 1.4 km/h 4.8 km/h 98% 0.0 mm 0 W/m2
03:08 9.7 °C 9.4 °C 1022.7 hPa NE 6.4 km/h 6.4 km/h 98% 0.0 mm 0 W/m2
03:13 9.7 °C 9.4 °C 1022.7 hPa Calm   3.2 km/h 98% 0.0 mm 0 W/m2
03:18 9.7 °C 9.4 °C 1022.7 hPa East 3.2 km/h 6.4 km/h 98% 0.0 mm 0 W/m2
03:23 9.8 °C 9.5 °C 1022.7 hPa North 3.2 km/h 3.2 km/h 98% 0.0 mm 0 W/m2
03:28 9.8 °C 9.5 °C 1022.4 hPa Calm   3.2 km/h 98% 0.0 mm 0 W/m2
03:33 9.8 °C 9.5 °C 1022.4 hPa ENE 4.7 km/h 8 km/h 98% 0.2 mm 0 W/m2
03:38 9.8 °C 9.5 °C 1022.4 hPa ESE 4.7 km/h 8 km/h 98% 0.2 mm 0 W/m2
03:43 9.8 °C 9.5 °C 1022.4 hPa ENE 1.4 km/h 6.4 km/h 98% 0.2 mm 0 W/m2
03:48 9.8 °C 9.5 °C 1022.0 hPa ENE 3.2 km/h 4.8 km/h 98% 0.2 mm 0 W/m2
03:53 9.8 °C 9.5 °C 1022.0 hPa NE 7.9 km/h 8 km/h 98% 0.2 mm 0 W/m2
03:58 9.8 °C 9.5 °C 1022.0 hPa ENE 1.4 km/h 6.4 km/h 98% 0.2 mm 0 W/m2
04:03 9.8 °C 9.5 °C 1021.7 hPa NE 4.7 km/h 4.8 km/h 98% 0.2 mm 0 W/m2
04:08 9.8 °C 9.5 °C 1022.0 hPa North 3.2 km/h 6.4 km/h 98% 0.2 mm 0 W/m2
04:13 9.8 °C 9.5 °C 1021.7 hPa Calm   3.2 km/h 98% 0.5 mm 0 W/m2
04:18 9.8 °C 9.5 °C 1021.7 hPa East 6.4 km/h 12.9 km/h 98% 0.5 mm 0 W/m2
04:23 9.9 °C 9.6 °C 1021.7 hPa Calm     98% 0.5 mm 0 W/m2
04:28 9.9 °C 9.6 °C 1021.3 hPa NNW 1.4 km/h 11.3 km/h 98% 0.5 mm 0 W/m2
04:33 9.9 °C 9.6 °C 1021.3 hPa NNW 6.4 km/h 6.4 km/h 98% 0.2 mm 0 W/m2
04:39 10 °C 9.7 °C 1021.3 hPa Calm     98% 0.2 mm 0 W/m2
04:44 10 °C 9.7 °C 1021.3 hPa NNW 4.7 km/h 8 km/h 98% 0.2 mm 0 W/m2
04:49 10 °C 9.7 °C 1021.0 hPa NE 4.7 km/h 4.8 km/h 98% 0.2 mm 0 W/m2
04:54 10 °C 9.7 °C 1021.0 hPa Calm   6.4 km/h 98% 0.2 mm 0 W/m2
04:59 10 °C 9.7 °C 1021.0 hPa WNW 1.4 km/h 6.4 km/h 98% 0.2 mm 0 W/m2
05:04 10 °C 9.7 °C 1021.0 hPa Calm   4.8 km/h 98% 0.2 mm 0 W/m2
05:09 10.1 °C 9.8 °C 1021.0 hPa NNW 1.4 km/h 6.4 km/h 98% 0.2 mm 0 W/m2
05:14 10.1 °C 9.8 °C 1021.0 hPa ENE 4.7 km/h 6.4 km/h 98% 0.0 mm 0 W/m2
05:19 10.1 °C 9.8 °C 1020.7 hPa Calm   8 km/h 98% 0.0 mm 0 W/m2
05:24 10.1 °C 9.8 °C 1020.7 hPa NNW 4.7 km/h 6.4 km/h 98% 0.0 mm 0 W/m2
05:29 10.1 °C 9.8 °C 1020.7 hPa NW 4.7 km/h 8 km/h 98% 0.0 mm 0 W/m2
05:34 10.1 °C 9.8 °C 1020.7 hPa WNW 3.2 km/h 4.8 km/h 98% 0.0 mm 0 W/m2
05:39 10.1 °C 9.8 °C 1020.7 hPa NNE 3.2 km/h 6.4 km/h 98% 0.0 mm 0 W/m2
05:44 10.1 °C 9.8 °C 1020.7 hPa ENE 3.2 km/h 8 km/h 98% 0.0 mm 0 W/m2
05:49 10.1 °C 9.8 °C 1020.7 hPa Calm   4.8 km/h 98% 0.0 mm 0 W/m2
05:54 10.1 °C 9.8 °C 1020.7 hPa ENE 3.2 km/h 3.2 km/h 98% 0.0 mm 0 W/m2
05:59 10.1 °C 9.8 °C 1020.7 hPa West 4.7 km/h 4.8 km/h 98% 0.0 mm 0 W/m2
06:04 10.1 °C 9.8 °C 1020.3 hPa North 1.4 km/h 4.8 km/h 98% 0.0 mm 0 W/m2
06:10 10.2 °C 9.9 °C 1020.3 hPa ENE 1.4 km/h 6.4 km/h 98% 0.0 mm 0 W/m2
06:15 10.2 °C 9.9 °C 1020.3 hPa Calm   8 km/h 98% 0.0 mm 0 W/m2
06:20 10.2 °C 9.9 °C 1020.3 hPa North 6.4 km/h 6.4 km/h 98% 0.0 mm 0 W/m2
06:25 10.2 °C 9.9 °C 1020.3 hPa West 1.4 km/h 6.4 km/h 98% 0.0 mm 0 W/m2
06:30 10.2 °C 9.9 °C 1020.3 hPa NW 1.4 km/h 3.2 km/h 98% 0.0 mm 0 W/m2
06:35 10.2 °C 9.9 °C 1020.3 hPa Calm   3.2 km/h 98% 0.0 mm 0 W/m2
06:40 10.3 °C 10 °C 1020.3 hPa NW 4.7 km/h 4.8 km/h 98% 0.2 mm 0 W/m2
06:45 10.3 °C 10 °C 1020.3 hPa SSE 3.2 km/h 6.4 km/h 98% 0.2 mm 0 W/m2
06:50 10.3 °C 10 °C 1020.3 hPa NE 9.7 km/h 9.7 km/h 98% 0.2 mm 0 W/m2
06:55 10.3 °C 10 °C 1020.0 hPa NE 7.9 km/h 14.5 km/h 98% 0.2 mm 0 W/m2
07:00 10.3 °C 10 °C 1020.0 hPa NE 1.4 km/h 6.4 km/h 98% 0.2 mm 0 W/m2
07:05 10.3 °C 10 °C 1019.6 hPa West 12.9 km/h 12.9 km/h 98% 0.2 mm 0 W/m2
07:10 10.3 °C 10 °C 1019.6 hPa NNE 7.9 km/h 8 km/h 98% 0.5 mm 0 W/m2
07:15 10.3 °C 10 °C 1019.6 hPa NNE 12.9 km/h 12.9 km/h 98% 0.5 mm 0 W/m2
07:20 10.3 °C 10 °C 1019.6 hPa East 6.4 km/h 14.5 km/h 98% 0.5 mm 0 W/m2
07:25 10.3 °C 10 °C 1019.6 hPa WSW 1.4 km/h 8 km/h 98% 0.5 mm 0 W/m2
07:30 10.3 °C 10 °C 1019.6 hPa WNW 1.4 km/h 17.7 km/h 98% 0.5 mm 0 W/m2
07:35 10.3 °C 10 °C 1019.6 hPa East 3.2 km/h 6.4 km/h 98% 0.5 mm 0 W/m2
07:40 10.4 °C 10.1 °C 1019.6 hPa East 3.2 km/h 16.1 km/h 98% 0.2 mm 0 W/m2
07:45 10.4 °C 10.1 °C 1019.3 hPa WNW 3.2 km/h 6.4 km/h 98% 0.2 mm 0 W/m2
07:50 10.4 °C 10.1 °C 1019.3 hPa NNE 3.2 km/h 12.9 km/h 98% 0.2 mm 0 W/m2
07:55 10.4 °C 9.9 °C 1019.3 hPa West 4.7 km/h 12.9 km/h 97% 0.2 mm 0 W/m2
08:00 10.4 °C 9.9 °C 1019.3 hPa NNW 6.4 km/h 6.4 km/h 97% 0.2 mm 0 W/m2
08:05 10.3 °C 9.8 °C 1019.3 hPa SSW 1.4 km/h 3.2 km/h 97% 0.2 mm 0 W/m2
08:10 10.3 °C 9.8 °C 1019.3 hPa Calm   6.4 km/h 97% 0.2 mm 0 W/m2
08:15 10.3 °C 9.8 °C 1019.0 hPa NNW 1.4 km/h 6.4 km/h 97% 0.2 mm 0 W/m2
08:20 10.3 °C 9.8 °C 1019.0 hPa West 1.4 km/h 6.4 km/h 97% 0.2 mm 0 W/m2
08:25 10.3 °C 9.8 °C 1019.0 hPa North 3.2 km/h 12.9 km/h 97% 0.2 mm 0 W/m2
08:30 10.3 °C 9.8 °C 1019.0 hPa NW 6.4 km/h 12.9 km/h 97% 0.2 mm 0 W/m2
08:35 10.3 °C 9.8 °C 1019.0 hPa WNW 3.2 km/h 9.7 km/h 97% 0.5 mm 0 W/m2
08:40 10.3 °C 9.8 °C 1019.0 hPa West 4.7 km/h 4.8 km/h 97% 0.5 mm 5 W/m2
08:45 10.4 °C 9.9 °C 1019.0 hPa NW 4.7 km/h 19.3 km/h 97% 0.5 mm 5 W/m2
08:50 10.4 °C 9.9 °C 1019.0 hPa West 6.4 km/h 9.7 km/h 97% 0.5 mm 5 W/m2
08:55 10.4 °C 9.9 °C 1019.0 hPa West 9.7 km/h 19.3 km/h 97% 0.5 mm 11 W/m2
09:00 10.4 °C 9.9 °C 1018.6 hPa WSW 4.7 km/h 4.8 km/h 97% 0.5 mm 12 W/m2
09:05 10.4 °C 9.9 °C 1018.6 hPa NE 3.2 km/h 11.3 km/h 97% 0.5 mm 14 W/m2
09:10 10.4 °C 9.9 °C 1018.6 hPa SW 1.4 km/h 8 km/h 97% 0.2 mm 16 W/m2
09:16 10.4 °C 9.9 °C 1018.6 hPa NW 4.7 km/h 8 km/h 97% 0.2 mm 19 W/m2
09:21 10.5 °C 10 °C 1019.0 hPa North 3.2 km/h 6.4 km/h 97% 0.2 mm 19 W/m2
09:26 10.5 °C 10 °C 1019.0 hPa West 9.7 km/h 14.5 km/h 97% 0.2 mm 18 W/m2
09:31 10.6 °C 10.1 °C 1018.6 hPa WSW 3.2 km/h 12.9 km/h 97% 0.0 mm 19 W/m2
09:36 10.6 °C 10.1 °C 1018.6 hPa WNW 1.4 km/h 14.5 km/h 97% 0.0 mm 21 W/m2
09:41 10.6 °C 10.1 °C 1018.6 hPa NW 3.2 km/h 8 km/h 97% 0.2 mm 28 W/m2
09:46 10.6 °C 10.1 °C 1018.6 hPa North 4.7 km/h 12.9 km/h 97% 0.2 mm 28 W/m2
09:51 10.6 °C 10.1 °C 1018.6 hPa Calm   1.6 km/h 97% 0.2 mm 30 W/m2
09:56 10.6 °C 10.1 °C 1018.6 hPa NNW 6.4 km/h 14.5 km/h 97% 0.2 mm 42 W/m2
10:01 10.7 °C 10.2 °C 1018.6 hPa WNW 4.7 km/h 6.4 km/h 97% 0.2 mm 44 W/m2
10:06 10.7 °C 10.2 °C 1018.6 hPa WSW 4.7 km/h 6.4 km/h 97% 0.2 mm 33 W/m2
10:11 10.7 °C 10.2 °C 1018.6 hPa NNE 4.7 km/h 11.3 km/h 97% 0.2 mm 35 W/m2
10:16 10.8 °C 10.2 °C 1018.6 hPa Calm   14.5 km/h 96% 0.2 mm 32 W/m2
10:21 10.8 °C 10.2 °C 1018.6 hPa West 4.7 km/h 9.7 km/h 96% 0.2 mm 32 W/m2
10:26 10.8 °C 10.2 °C 1018.6 hPa Calm   6.4 km/h 96% 0.2 mm 35 W/m2
10:31 10.8 °C 10.2 °C 1018.6 hPa Calm   4.8 km/h 96% 0.2 mm 44 W/m2
10:36 10.9 °C 10.3 °C 1018.3 hPa Calm   16.1 km/h 96% 0.2 mm 40 W/m2
10:41 10.9 °C 10.3 °C 1018.6 hPa South 4.7 km/h 14.5 km/h 96% 0.0 mm 37 W/m2
10:46 10.9 °C 10.3 °C 1018.3 hPa Calm   16.1 km/h 96% 0.0 mm 32 W/m2
10:51 11 °C 10.4 °C 1018.3 hPa WSW 4.7 km/h 6.4 km/h 96% 0.0 mm 37 W/m2
10:56 11 °C 10.4 °C 1018.3 hPa NNE 3.2 km/h 3.2 km/h 96% 0.0 mm 63 W/m2
11:01 11.1 °C 10.5 °C 1018.3 hPa NW 1.4 km/h 6.4 km/h 96% 0.0 mm 63 W/m2
11:06 11.1 °C 10.5 °C 1018.3 hPa NE 1.4 km/h 12.9 km/h 96% 0.0 mm 60 W/m2
11:11 11.2 °C 10.6 °C 1018.3 hPa WNW 1.4 km/h 16.1 km/h 96% 0.0 mm 53 W/m2
11:16 11.2 °C 10.6 °C 1018.0 hPa Calm   3.2 km/h 96% 0.0 mm 46 W/m2
11:21 11.2 °C 10.4 °C 1018.0 hPa NE 4.7 km/h 16.1 km/h 95% 0.0 mm 54 W/m2
11:26 11.3 °C 10.5 °C 1018.0 hPa NNE 13 km/h 12.9 km/h 95% 0.0 mm 60 W/m2
11:31 11.3 °C 10.5 °C 1017.6 hPa Calm   14.5 km/h 95% 0.0 mm 60 W/m2
Juneau County Weather
Compliments of Weather Underground - 2 mb